| time (UTC) | temp C | wind direction | speed KPH | gust KPH | rain 1hr cm | rain 24hr cm | rain mn cm | humidity % | barometer mb |
| 20260505025205 | 10 | 34 | 11.3 | 19.3 | 0.00 | 0.00 | 0.00 | 49 | 1010.1 |
| 20260505024705 | 10 | 42 | 9.7 | 19.3 | 0.00 | 0.00 | 0.00 | 48 | 1009.9 |
| 20260505024205 | 10 | 35 | 8.0 | 19.3 | 0.00 | 0.00 | 0.00 | 47 | 1009.7 |
| 20260505023204 | 10 | 37 | 8.0 | 16.1 | 0.00 | 0.00 | 0.00 | 46 | 1009.7 |
| 20260505022705 | 10 | 32 | 4.8 | 12.9 | 0.00 | 0.00 | 0.00 | 46 | 1009.7 |
| 20260505022205 | 10 | 31 | 8.0 | 19.3 | 0.00 | 0.00 | 0.00 | 45 | 1009.7 |
| 20260505021705 | 10 | 35 | 8.0 | 16.1 | 0.00 | 0.00 | 0.00 | 46 | 1009.4 |
| 20260505021205 | 10 | 29 | 6.4 | 14.5 | 0.00 | 0.00 | 0.00 | 46 | 1009.3 |
| 20260505020705 | 10 | 44 | 8.0 | 14.5 | 0.00 | 0.00 | 0.00 | 46 | 1009.2 |
| 20260505020205 | 10 | 29 | 4.8 | 14.5 | 0.00 | 0.00 | 0.00 | 46 | 1009.2 |
| 20260505015705 | 10 | 29 | 8.0 | 16.1 | 0.00 | 0.00 | 0.00 | 46 | 1009.2 |
| 20260505015204 | 10 | 49 | 8.0 | 14.5 | 0.00 | 0.00 | 0.00 | 46 | 1009.0 |
| 20260505014205 | 10 | 29 | 8.0 | 16.1 | 0.00 | 0.00 | 0.00 | 46 | 1008.9 |
| 20260505013705 | 10 | 33 | 11.3 | 20.9 | 0.00 | 0.00 | 0.00 | 45 | 1008.8 |
| 20260505013205 | 11 | 25 | 11.3 | 19.3 | 0.00 | 0.00 | 0.00 | 45 | 1008.8 |
| 20260505012205 | 11 | 30 | 12.9 | 20.9 | 0.00 | 0.00 | 0.00 | 44 | 1008.8 |
| 20260505011705 | 11 | 30 | 11.3 | 19.3 | 0.00 | 0.00 | 0.00 | 44 | 1008.7 |
| 20260505011205 | 11 | 28 | 11.3 | 20.9 | 0.00 | 0.00 | 0.00 | 43 | 1008.7 |
| 20260505010205 | 11 | 47 | 8.0 | 14.5 | 0.00 | 0.00 | 0.00 | 45 | 1008.7 |
| 20260505005705 | 11 | 45 | 8.0 | 14.5 | 0.00 | 0.00 | 0.00 | 45 | 1008.6 |
| 20260505005206 | 11 | 57 | 8.0 | 19.3 | 0.00 | 0.00 | 0.00 | 45 | 1008.5 |
| 20260505004705 | 11 | 36 | 8.0 | 19.3 | 0.00 | 0.00 | 0.00 | 45 | 1008.5 |
| 20260505004205 | 11 | 23 | 9.7 | 19.3 | 0.00 | 0.00 | 0.00 | 45 | 1008.4 |
| 20260505003705 | 11 | 36 | 8.0 | 19.3 | 0.00 | 0.00 | 0.00 | 46 | 1008.4 |
| 20260505003205 | 11 | 42 | 8.0 | 11.3 | 0.00 | 0.00 | 0.00 | 47 | 1008.4 |
| 20260505002705 | 11 | 47 | 11.3 | 19.3 | 0.00 | 0.00 | 0.00 | 46 | 1008.3 |
| 20260505002205 | 11 | 37 | 6.4 | 14.5 | 0.00 | 0.00 | 0.00 | 47 | 1008.2 |
| 20260505001205 | 11 | 51 | 11.3 | 19.3 | 0.00 | 0.00 | 0.00 | 47 | 1008.2 |
| 20260504235205 | 12 | 49 | 12.9 | 24.1 | 0.00 | 0.00 | 0.00 | 45 | 1008.2 |
| 20260504234704 | 12 | 40 | 14.5 | 25.7 | 0.00 | 0.00 | 0.00 | 45 | 1008.2 |
| 20260504234204 | 12 | 35 | 12.9 | 20.9 | 0.00 | 0.00 | 0.00 | 45 | 1008.2 |
| 20260504233205 | 12 | 31 | 14.5 | 22.5 | 0.00 | 0.00 | 0.00 | 46 | 1008.2 |
| 20260504232705 | 12 | 40 | 14.5 | 24.1 | 0.00 | 0.00 | 0.00 | 46 | 1008.1 |
| 20260504232205 | 12 | 34 | 14.5 | 22.5 | 0.00 | 0.03 | 0.00 | 47 | 1007.9 |
| 20260504231705 | 12 | 37 | 11.3 | 22.5 | 0.00 | 0.03 | 0.00 | 49 | 1007.9 |
| 20260504230205 | 11 | 33 | 12.9 | 29.0 | 0.00 | 0.08 | 0.00 | 50 | 1007.7 |
| 20260504224705 | 12 | 19 | 11.3 | 22.5 | 0.00 | 0.33 | 0.00 | 50 | 1007.5 |
| 20260504224205 | 12 | 22 | 12.9 | 25.7 | 0.00 | 0.33 | 0.00 | 49 | 1007.4 |
| 20260504223705 | 12 | 20 | 16.1 | 24.1 | 0.00 | 0.33 | 0.00 | 49 | 1007.5 |
| 20260504223205 | 12 | 17 | 14.5 | 24.1 | 0.00 | 0.33 | 0.00 | 49 | 1007.4 |
| 20260504222704 | 12 | 17 | 17.7 | 32.2 | 0.00 | 0.33 | 0.00 | 48 | 1007.5 |
| 20260504222205 | 13 | 7 | 17.7 | 27.4 | 0.00 | 0.33 | 0.00 | 47 | 1007.5 |
| 20260504221705 | 13 | 34 | 14.5 | 29.0 | 0.00 | 0.33 | 0.00 | 48 | 1007.4 |
| 20260504221205 | 13 | 31 | 16.1 | 27.4 | 0.00 | 0.33 | 0.00 | 47 | 1007.3 |
| 20260504220704 | 12 | 20 | 14.5 | 29.0 | 0.00 | 0.33 | 0.00 | 47 | 1007.2 |
| 20260504220204 | 13 | 32 | 17.7 | 32.2 | 0.00 | 0.33 | 0.00 | 45 | 1007.2 |
| 20260504215705 | 13 | 31 | 17.7 | 32.2 | 0.00 | 0.33 | 0.00 | 44 | 1007.1 |
| 20260504215205 | 13 | 17 | 14.5 | 22.5 | 0.00 | 0.33 | 0.00 | 44 | 1007.2 |
| 20260504214205 | 13 | 29 | 17.7 | 29.0 | 0.00 | 0.33 | 0.00 | 43 | 1007.0 |
| 20260504213705 | 13 | 39 | 16.1 | 25.7 | 0.00 | 0.33 | 0.00 | 43 | 1006.9 |
| 20260504213205 | 14 | 40 | 14.5 | 27.4 | 0.00 | 0.33 | 0.00 | 43 | 1006.9 |
| 20260504212705 | 15 | 40 | 14.5 | 24.1 | 0.00 | 0.33 | 0.00 | 41 | 1006.8 |
| 20260504212204 | 15 | 27 | 14.5 | 25.7 | 0.00 | 0.33 | 0.00 | 42 | 1006.8 |
| 20260504211704 | 14 | 27 | 14.5 | 22.5 | 0.00 | 0.33 | 0.00 | 41 | 1006.9 |
| 20260504211204 | 14 | 37 | 16.1 | 32.2 | 0.00 | 0.33 | 0.00 | 42 | 1006.9 |
| 20260504210705 | 14 | 28 | 14.5 | 25.7 | 0.00 | 0.33 | 0.00 | 42 | 1006.8 |
| 20260504210205 | 14 | 19 | 19.3 | 29.0 | 0.00 | 0.33 | 0.00 | 42 | 1006.8 |
| 20260504205705 | 13 | 44 | 16.1 | 24.1 | 0.00 | 0.33 | 0.00 | 43 | 1006.9 |
| 20260504205206 | 13 | 23 | 17.7 | 27.4 | 0.00 | 0.33 | 0.00 | 43 | 1007.0 |
| 20260504204204 | 14 | 31 | 14.5 | 27.4 | 0.00 | 0.33 | 0.00 | 41 | 1007.1 |
| 20260504203205 | 14 | 14 | 11.3 | 19.3 | 0.00 | 0.33 | 0.00 | 41 | 1007.0 |
| 20260504202705 | 15 | 23 | 14.5 | 22.5 | 0.00 | 0.33 | 0.00 | 40 | 1007.1 |
| 20260504202204 | 15 | 18 | 14.5 | 24.1 | 0.00 | 0.33 | 0.00 | 40 | 1007.0 |
| 20260504201705 | 15 | 7 | 12.9 | 24.1 | 0.00 | 0.33 | 0.00 | 40 | 1007.1 |
| 20260504201204 | 15 | 39 | 16.1 | 25.7 | 0.00 | 0.33 | 0.00 | 41 | 1006.9 |
| 20260504200704 | 15 | 37 | 11.3 | 24.1 | 0.00 | 0.33 | 0.00 | 39 | 1006.9 |
| 20260504195704 | 15 | 6 | 12.9 | 24.1 | 0.00 | 0.33 | 0.00 | 40 | 1006.9 |
| 20260504195204 | 15 | 6 | 11.3 | 22.5 | 0.00 | 0.33 | 0.00 | 41 | 1006.9 |
| 20260504194705 | 15 | 348 | 11.3 | 25.7 | 0.00 | 0.33 | 0.00 | 41 | 1006.9 |
| 20260504194204 | 15 | 19 | 16.1 | 22.5 | 0.00 | 0.33 | 0.00 | 41 | 1006.9 |
| 20260504193704 | 15 | 343 | 12.9 | 20.9 | 0.00 | 0.33 | 0.00 | 40 | 1007.0 |
| 20260504192204 | 15 | 22 | 16.1 | 32.2 | 0.00 | 0.33 | 0.00 | 40 | 1006.7 |
| 20260504191705 | 15 | 45 | 17.7 | 27.4 | 0.00 | 0.33 | 0.00 | 41 | 1006.7 |
| 20260504191205 | 15 | 36 | 16.1 | 29.0 | 0.00 | 0.33 | 0.00 | 39 | 1006.7 |
| 20260504190705 | 15 | 14 | 14.5 | 27.4 | 0.00 | 0.33 | 0.00 | 41 | 1006.7 |
| 20260504185705 | 15 | 30 | 17.7 | 33.8 | 0.00 | 0.33 | 0.00 | 41 | 1006.9 |
| 20260504185204 | 15 | 32 | 16.1 | 27.4 | 0.00 | 0.33 | 0.00 | 40 | 1006.8 |
| 20260504184704 | 15 | 4 | 14.5 | 25.7 | 0.00 | 0.33 | 0.00 | 40 | 1007.0 |
| 20260504183705 | 15 | 353 | 16.1 | 27.4 | 0.00 | 0.33 | 0.00 | 41 | 1007.3 |
| 20260504183205 | 15 | 9 | 14.5 | 25.7 | 0.00 | 0.33 | 0.00 | 42 | 1007.1 |
| 20260504182705 | 15 | 6 | 12.9 | 20.9 | 0.00 | 0.33 | 0.00 | 43 | 1007.2 |
| 20260504182204 | 15 | 16 | 16.1 | 25.7 | 0.00 | 0.33 | 0.00 | 43 | 1007.2 |
| 20260504181705 | 14 | 0 | 17.7 | 37.0 | 0.00 | 0.33 | 0.00 | 45 | 1007.0 |
| 20260504181204 | 13 | 38 | 19.3 | 32.2 | 0.00 | 0.33 | 0.00 | 45 | 1007.1 |
| 20260504180704 | 13 | 34 | 14.5 | 24.1 | 0.00 | 0.33 | 0.00 | 44 | 1007.1 |
| 20260504175204 | 14 | 17 | 20.9 | 32.2 | 0.00 | 0.33 | 0.00 | 44 | 1007.1 |
| 20260504174704 | 14 | 36 | 12.9 | 29.0 | 0.00 | 0.33 | 0.00 | 46 | 1007.1 |
| 20260504174204 | 13 | 13 | 17.7 | 29.0 | 0.00 | 0.33 | 0.00 | 44 | 1007.2 |
| 20260504173704 | 14 | 31 | 14.5 | 32.2 | 0.00 | 0.33 | 0.00 | 45 | 1007.0 |
| 20260504173204 | 13 | 33 | 14.5 | 24.1 | 0.00 | 0.33 | 0.00 | 45 | 1006.8 |
| 20260504172704 | 13 | 45 | 14.5 | 32.2 | 0.00 | 0.33 | 0.00 | 46 | 1006.7 |
| 20260504171704 | 13 | 38 | 20.9 | 32.2 | 0.00 | 0.33 | 0.00 | 44 | 1007.0 |
| 20260504171204 | 13 | 34 | 14.5 | 32.2 | 0.00 | 0.33 | 0.00 | 43 | 1007.0 |
| 20260504170204 | 14 | 20 | 14.5 | 27.4 | 0.00 | 0.33 | 0.00 | 45 | 1006.9 |
| 20260504150204 | 12 | 29 | 19.3 | 27.4 | 0.00 | 0.33 | 0.00 | 49 | 1005.9 |
| 20260504141204 | 11 | 39 | 19.3 | 29.0 | 0.00 | 0.33 | 0.00 | 63 | 1005.5 |
| 20260504140704 | 11 | 42 | 14.5 | 25.7 | 0.00 | 0.33 | 0.00 | 65 | 1005.5 |
| 20260504140204 | 11 | 32 | 12.9 | 29.0 | 0.00 | 0.33 | 0.00 | 64 | 1005.6 |
| 20260504130704 | 11 | 280 | 4.8 | 11.3 | 0.00 | 0.33 | 0.00 | 59 | 1004.3 |
| 20260504130204 | 10 | 256 | 8.0 | 22.5 | 0.00 | 0.33 | 0.00 | 58 | 1003.9 |
| 20260504120203 | 10 | 201 | 8.0 | 14.5 | 0.00 | 0.33 | 0.00 | 60 | 1002.1 |
| 20260504110203 | 7 | 217 | 8.0 | 8.0 | 0.00 | 0.33 | 0.00 | 71 | 1002.2 |
| 20260504081706 | 8 | 225 | 8.0 | 9.7 | 0.00 | 0.33 | 0.00 | 74 | 1003.0 |
| 20260504081205 | 8 | 226 | 8.0 | 11.3 | 0.00 | 0.33 | 0.00 | 75 | 1003.0 |
| 20260504080705 | 8 | 232 | 8.0 | 9.7 | 0.00 | 0.33 | 0.00 | 76 | 1003.0 |
| 20260504080205 | 8 | 232 | 6.4 | 8.0 | 0.00 | 0.33 | 0.00 | 76 | 1003.1 |
| 20260504060205 | 11 | 212 | 1.6 | 3.2 | 0.00 | 0.33 | 0.00 | 70 | 1003.6 |
| 20260504045706 | 8 | 188 | 1.6 | 4.8 | 0.00 | 0.33 | 0.33 | 79 | 1004.1 |
| 20260504045205 | 8 | 188 | 1.6 | 3.2 | 0.00 | 0.33 | 0.33 | 80 | 1004.0 |
| 20260504044706 | 8 | 188 | 0.0 | 1.6 | 0.00 | 0.33 | 0.33 | 80 | 1004.1 |
| 20260504044205 | 8 | 188 | 1.6 | 3.2 | 0.00 | 0.33 | 0.33 | 81 | 1004.2 |
| 20260504043705 | 8 | 188 | 1.6 | 3.2 | 0.00 | 0.33 | 0.33 | 81 | 1004.2 |
| 20260504042705 | 9 | 188 | 1.6 | 3.2 | 0.00 | 0.33 | 0.33 | 81 | 1004.2 |
| 20260504042205 | 9 | 188 | 0.0 | 1.6 | 0.00 | 0.33 | 0.33 | 81 | 1004.3 |
| 20260504041705 | 9 | 188 | 0.0 | 1.6 | 0.00 | 0.33 | 0.33 | 81 | 1004.3 |
| 20260504041206 | 9 | 188 | 0.0 | 3.2 | 0.00 | 0.33 | 0.33 | 81 | 1004.3 |
| 20260504040705 | 9 | 188 | 3.2 | 4.8 | 0.00 | 0.33 | 0.33 | 81 | 1004.4 |
| 20260504040206 | 9 | 188 | 1.6 | 3.2 | 0.00 | 0.33 | 0.33 | 81 | 1004.3 |
| 20260504035705 | 10 | 188 | 0.0 | 1.6 | 0.00 | 0.33 | 0.33 | 81 | 1004.3 |
| 20260504034705 | 10 | 188 | 0.0 | 1.6 | 0.00 | 0.33 | 0.33 | 80 | 1004.5 |
| 20260504034205 | 10 | 188 | 0.0 | 1.6 | 0.00 | 0.33 | 0.33 | 80 | 1004.4 |
| 20260504033205 | 10 | 188 | 0.0 | 1.6 | 0.00 | 0.33 | 0.33 | 78 | 1004.4 |
| 20260504032705 | 10 | 188 | 0.0 | 3.2 | 0.00 | 0.33 | 0.33 | 77 | 1004.5 |
| 20260504032205 | 11 | 188 | 1.6 | 3.2 | 0.00 | 0.33 | 0.33 | 76 | 1004.5 |
| 20260504031705 | 11 | 188 | 1.6 | 3.2 | 0.00 | 0.33 | 0.33 | 74 | 1004.5 |
| 20260504031205 | 11 | 188 | 0.0 | 1.6 | 0.00 | 0.33 | 0.33 | 73 | 1004.5 |
| 20260504030205 | 12 | 187 | 1.6 | 4.8 | 0.00 | 0.33 | 0.33 | 70 | 1004.5 |
| 20260504025705 | 12 | 186 | 1.6 | 4.8 | 0.00 | 0.33 | 0.33 | 69 | 1004.6 |